Location: Ergnies
(50.0854°N, 2.0375°E)
Time: 08:29:02
(UTC+00:00)

Okean 3 - Pass Details

Date: 14 January 2026
Orbit: 542 x 564 km, 82.5° (Epoch: 17 February)

Event Time Altitude Azimuth Distance (km) Brightness Sun altitude
Exits shadow 05:35:53 23° 351° (N) 1,211 4.9 -20.1°
Maximum altitude 05:38:22 88° 83° (E) 552 3.2 -19.7°
Drops below altitude 10° 05:42:20 10° 171° (S) 1,804 6.2 -19.1°
Sets 05:44:29 0° 171° (S) 2,690 7.1 -18.7°
